Location: WHS+Essen
(51.3947°N, 6.9794°E)
Time: 12:57:50
(UTC+02:00)

ISS - Visible Passes

Search period start: 19 May 2019 00:00
Search period end: 29 May 2019 00:00
Orbit: 408 x 410 km, 51.6° (Epoch: 19 May)

Date Brightness Start Highest point End Pass type
(mag) Time Alt. Az. Time Alt. Az. Time Alt. Az.
19 May -4.0 00:29:15 10° WSW 00:32:33 81° S 00:35:53 10° E visible
19 May -3.9 02:05:50 10° W 02:09:10 90° NE 02:12:29 10° E visible
19 May -3.3 03:42:29 10° W 03:45:35 37° SSW 03:48:40 10° SE visible
19 May -2.3 22:03:06 10° S 22:05:30 19° SE 22:07:56 10° E visible
19 May -3.9 23:38:23 10° WSW 23:41:40 64° SSE 23:44:57 10° E visible
20 May -3.8 01:14:55 10° W 01:18:14 84° N 01:21:34 10° E visible
20 May -3.8 02:51:31 10° W 02:54:46 52° SSW 02:57:59 10° SE visible
20 May -2.0 04:28:57 10° WSW 04:30:48 14° SW 04:32:39 10° S visible
20 May -3.6 22:47:37 10° SW 22:50:49 47° SSE 22:54:01 10° E visible
21 May -3.8 00:23:59 10° W 00:27:18 85° N 00:30:38 10° E visible
21 May -4.0 02:00:35 10° W 02:03:53 69° SSW 02:04:27 54° SE visible
21 May -3.9 23:33:03 10° W 23:36:22 87° SSE 23:39:41 10° E visible
22 May -4.0 01:09:38 10° W 01:12:59 85° S 01:14:11 36° ESE visible
22 May -1.5 02:46:21 10° W 02:46:51 13° W 02:46:51 13° W visible
22 May -3.9 22:42:08 10° WSW 22:45:25 73° SSE 22:48:43 10° E visible
23 May -3.9 00:18:42 10° W 00:22:01 86° N 00:24:29 17° E visible
23 May -2.5 01:55:19 10° W 01:57:10 28° W 01:57:10 28° W visible
23 May -3.8 23:27:44 10° W 23:31:03 84° N 23:34:22 10° E visible
24 May -3.9 01:04:19 10° W 01:07:36 60° SSW 01:07:39 60° SSW visible
24 May -3.8 22:36:45 10° W 22:40:03 88° NNW 22:43:23 10° E visible
25 May -3.9 00:13:20 10° W 00:16:39 77° SSW 00:18:11 29° ESE visible
25 May -1.5 01:50:08 10° W 01:50:53 15° W 01:50:53 15° W visible
25 May -3.9 23:22:22 10° W 23:25:41 90° WSW 23:28:46 12° E visible
26 May -2.9 00:59:00 10° W 01:01:28 33° SW 01:01:28 33° SW visible
26 May -3.7 22:31:21 10° W 22:34:40 84° N 22:37:59 10° E visible
27 May -3.6 00:07:57 10° W 00:11:11 52° SSW 00:12:04 38° SSE visible
27 May -3.8 23:16:56 10° W 23:20:14 69° SSW 23:22:42 16° ESE visible
28 May -1.9 00:53:51 10° W 00:55:24 18° WSW 00:55:24 18° WSW visible
28 May -3.8 22:25:55 10° W 22:29:14 84° S 22:32:32 10° ESE visible
